This is the latest recevied weather packets stored in our database for station/object K0VSC-1. If no packets are shown the sender has not sent any weather packets the latest 1 day(s).
| Time | Temp. | Humidity | Pressure | Rain* | Wind** | Luminosity | Snow |
|---|---|---|---|---|---|---|---|
| 1778014985 | 6.67° C | 46% | 1011.8 hPa | 0 mm | 2.24 m/s, 310° | 295 W/m² | - |
| 1778014685 | 7.22° C | 45% | 1011.8 hPa | 0 mm | 3.13 m/s, 292° | 297 W/m² | - |
| 1778014385 | 6.67° C | 47% | 1011.9 hPa | 0 mm | 2.68 m/s, 306° | 981 W/m² | - |
| 1778014085 | 6.67° C | 47% | 1011.8 hPa | 0 mm | 1.79 m/s, 297° | 320 W/m² | - |
| 1778013785 | 6.67° C | 47% | 1011.8 hPa | 0 mm | 2.68 m/s, 298° | 311 W/m² | - |
| 1778013485 | 6.67° C | 47% | 1011.7 hPa | 0 mm | 3.13 m/s, 304° | 332 W/m² | - |
| 1778013185 | 6.67° C | 48% | 1011.7 hPa | 0 mm | 2.68 m/s, 327° | 330 W/m² | - |
| 1778012885 | 6.67° C | 47% | 1011.7 hPa | 0 mm | 2.24 m/s, 332° | 327 W/m² | - |
| 1778012585 | 6.67° C | 47% | 1011.7 hPa | 0 mm | 2.68 m/s, 303° | 320 W/m² | - |
| 1778012285 | 6.67° C | 46% | 1011.7 hPa | 0 mm | 2.68 m/s, 341° | 454 W/m² | - |
| 1778011985 | 6.11° C | 47% | 1011.6 hPa | 0 mm | 2.24 m/s, 290° | 330 W/m² | - |
| 1778011685 | 6.67° C | 46% | 1011.7 hPa | 0 mm | 1.79 m/s, 321° | 234 W/m² | - |
| 1778011385 | 6.67° C | 48% | 1011.7 hPa | 0 mm | 1.79 m/s, 309° | 272 W/m² | - |
| 1778011085 | 6.67° C | 47% | 1011.6 hPa | 0 mm | 2.24 m/s, 304° | 295 W/m² | - |
| 1778010785 | 6.67° C | 47% | 1011.6 hPa | 0 mm | 2.68 m/s, 277° | 422 W/m² | - |
| 1778010485 | 6.11° C | 46% | 1011.6 hPa | 0 mm | 2.24 m/s, 316° | 311 W/m² | - |
| 1778010185 | 6.67° C | 46% | 1011.7 hPa | 0 mm | 3.13 m/s, 315° | 332 W/m² | - |
| 1778009885 | 6.11° C | 46% | 1011.6 hPa | 0 mm | 3.13 m/s, 327° | 357 W/m² | - |
| 1778009585 | 6.67° C | 47% | 1011.6 hPa | 0 mm | 2.24 m/s, 337° | 425 W/m² | - |
| 1778009285 | 6.11° C | 47% | 1011.8 hPa | 0 mm | 1.79 m/s, 325° | 353 W/m² | - |
| 1778008985 | 6.67° C | 45% | 1011.7 hPa | 0 mm | 1.79 m/s, 314° | 283 W/m² | - |
| 1778008685 | 6.67° C | 47% | 1011.6 hPa | 0 mm | 1.79 m/s, 304° | 271 W/m² | - |
| 1778008385 | 6.67° C | 47% | 1011.7 hPa | 0 mm | 2.24 m/s, 309° | 309 W/m² | - |
| 1778008085 | 6.67° C | 46% | 1011.7 hPa | 0 mm | 1.34 m/s, 294° | 343 W/m² | - |
| 1778007785 | 6.67° C | 47% | 1011.8 hPa | 0 mm | 1.34 m/s, 320° | 345 W/m² | - |
* Rain latest hour (hover to see other rain measurements)
** Current wind speed in m/s (hover to see current wind gust speed)